Regional Weather Roundup
Issued by NWS Kansas City/Pleasant Hill, MO

Home | Current Version | Previous Version | Graphics & Text | Print | Product List | Glossary Off
Versions: 1 2 3 4 5 6 7 8 9 10 11 12 13 14 15 16 17 18 19 20 21 22 23 24 25 26 27 28 29 30 31 32 33 34 35 36 37 38 39 40 41 42 43 44 45 46 47 48 49 50

000
ASUS43 KEAX 021111
RWREAX

WEATHER ROUNDUP FOR EASTERN KANSAS AND NORTHWEST MISSOURI
NATIONAL WEATHER SERVICE KANSAS CITY/PLEASANT HILL MO
600 AM CDT THU JUL 02 2015

KSZ040-057-103>105-MOZ028-029-037-043-021200-
...KANSAS CITY METROPOLITAN AREA...

CITY           SKY/WX    TMP DP  RH WIND       PRES   REMARKS
K.C. INTL      CLOUDY    72  69  90 NE12      29.88R
K.C. DOWNTOWN  CLOUDY    74  70  87 NE10      29.86R
LEES SUMMIT    CLOUDY    71  68  90 E9        29.87R
OLATHE - IXD   CLOUDY    72  69  90 NE10      29.88R
OLATHE - OJC   CLOUDY    70  68  93 E9        29.86R
LAWRENCE       CLOUDY    73  69  87 NE6       29.87R

$$

MOZ001>008-011>017-020>025-030>033-038>040-044>046-053-054-021200-
...NORTHERN AND CENTRAL MISSOURI...

CITY           SKY/WX    TMP DP  RH WIND       PRES   REMARKS
ST. JOSEPH     CLOUDY    71  67  87 NE6       29.89R
MOSBY          CLOUDY    72  68  88 NE5       29.87R FOG
HARRISONVILLE  CLOUDY    72  70  94 E5        29.88R
WARRENSBURG    CLOUDY    70  68  94 NE5       29.85S
WHITEMAN AFB   CLOUDY    71  69  96 E9        29.85R
CLINTON        FOG       70  70 100 NE6       29.85R VSB 1/2
SEDALIA        CLOUDY    71  69  93 MISG      29.87R
WARSAW         CLOUDY    68  68 100 CALM      29.85R FOG
CHILLICOTHE      N/A     70  67  90 VRB6      29.90S
KIRKSVILLE     CLOUDY    65  62  90 NE8       29.92S FOG

$$

MOZ041-047>049-056>058-063>065-088>090-097-021200-
...EASTERN AND SOUTHERN MISSOURI...

CITY           SKY/WX    TMP DP  RH WIND       PRES   REMARKS
ST. LOUIS INTL LGT RAIN  72  66  83 N14       29.86R FOG
SPIRIT OF STL  CLOUDY    71  70  96 CALM      29.84R
COLUMBIA       CLOUDY    71  69  93 NE6       29.86R
JEFFERSON CITY CLOUDY    71  68  90 N6        29.85R
ROLLA          PTCLDY    67  66  97 CALM      29.85R
LEBANON        PTCLDY    70  66  88 SW7       29.85R
OSAGE BEACH    CLEAR     66  64  94 CALM      29.84R
SPRINGFIELD    CLOUDY    70  67  90 VRB6      29.87R
BRANSON        CLOUDY    68  66  94 SE6       29.90S
JOPLIN         CLOUDY    76  71  85 SE5       29.83R
WEST PLAINS    CLOUDY    70  66  87 SW8       29.88R
MALDEN         CLOUDY    77  72  83 W8        29.87R

$$

IAZ060-094-KSZ022-034>040-054-083-096-NEZ052-066-093-021200-
...KANSAS...SOUTHEAST NEBRASKA AND IOWA...

CITY           SKY/WX    TMP DP  RH WIND       PRES   REMARKS
TOPEKA         CLOUDY    73  70  90 N6        29.87R
MANHATTAN      LGT RAIN  74  70  87 E9        29.88S
EMPORIA        PTCLDY    71  68  90 NE10      29.86R
CHANUTE        PTCLDY    70  68  93 NE8       29.82R
WICHITA        MOCLDY    76  72  87 N6        29.86R
OMAHA          CLOUDY    65  59  81 VRB7      29.95R
LINCOLN        CLOUDY    68  64  87 E7        29.95R
FALLS CITY     CLOUDY    69  67  93 NE7       29.90R FOG
LAMONI         PTCLDY    63  60  90 NE7       29.93S
DES MOINES     MOCLDY    60  53  77 NE10      29.96S

$$




USA.gov is the U.S. government's official web portal to all federal, state and local government web resources and services.